Vorticity
5 5 5 5 6 6 6 6 6 5 5 5 5 6 5 6 6 6 4 3 4 4 4 5 5 5 4 3 3 7 8 8 8
5 5 5 5 5 5 5 5 5 5 5 5 6 6 6 6 5 5 4 4 5 4 3 5 5 6 2 2 3 3 6 10 10
4 4 5 4 5 5 5 5 5 5 6 6 6 6 5 6 5 5 4 3 3 2 6 5 5 8 5 4 2 2 3 6 10
4 4 4 5 6 6 7 6 6 6 6 6 5 5 5 5 5 6 5 1 2 6 5 4 8 7 5 3 3 3 2 7 10
4 5 4 5 5 6 6 6 7 6 7 6 6 6 6 6 6 5 3 4 2 6 5 3 7 7 6 4 3 3 2 4 11
4 4 5 4 5 5 5 5 6 7 6 6 6 6 5 5 4 4 3 5 2 0 7 5 6 6 6 6 4 3 2 3 8
4 5 5 5 5 5 5 5 5 5 4 5 4 4 4 5 5 3 3 5 4 3 4 6 6 7 7 6 6 4 3 2 8
5 4 4 4 4 4 4 5 5 4 4 4 4 4 5 5 4 3 4 4 4 2 6 4 6 5 6 6 8 3 3 2 9
5 4 4 4 4 4 4 5 5 4 5 4 4 4 3 4 3 3 3 4 6 1 4 5 6 6 6 7 8 4 3 2 9
5 4 4 4 4 4 4 5 5 4 4 4 4 4 4 4 5 4 3 4 5 3 4 5 5 6 7 8 7 4 3 2 10
4 5 4 3 3 3 4 6 6 5 5 5 5 4 5 4 4 4 3 5 3 4 5 3 5 7 6 9 8 4 4 4 9
5 4 4 3 3 4 4 6 4 4 4 4 5 5 5 5 4 4 3 4 3 3 6 4 5 7 8 8 5 3 4 5 9
5 6 3 4 3 4 3 4 3 3 3 5 5 5 5 5 4 5 4 5 4 2 3 7 6 8 7 7 2 5 4 7 9
6 5 6 5 4 4 4 4 5 2 4 4 3 3 4 4 4 5 5 5 4 6 3 7 8 5 9 7 2 5 5 9 9
7 6 6 6 6 4 4 4 5 4 2 3 4 3 3 4 5 4 5 3 3 6 5 7 11 6 7 6 4 7 7 9 8
14 0 8 6 7 6 6 5 3 3 3 2 3 2 6 6 3 2 4 4 3 8 5 7 8 8 4 4 5 7 9 9 7
4 -2 18 2 0 2 -1 -4 5 3 3 -1 2 -2 3 6 6 6 9 6 2 8 7 6 8 9 5 4 6 8 10 8 8
7 6 6 3 5 13 10 22 30 -6 -13 3 -1 0 -5 -0 8 10 8 4 8 6 8 7 8 8 6 6 6 10 9 7 8
9 8 8 7 7 7 1 1 5 9 5 13 15 16 16 10 5 9 3 5 8 5 11 8 11 5 6 7 9 10 10 8 8
12 1 3 4 -0 5 3 2 5 3 3 8 5 10 12 11 15 8 10 16 9 13 8 10 7 5 6 8 9 9 9 8 7
Height
5890 5891 5890 5889 5889 5888 5888 5887 5886 5885 5884 5883 5882 5881 5881 5880 5879 5878 5876 5875 5874 5872 5871 5868 5866 5864 5861 5858 5855 5852 5849 5846 5842
5889 5889 5888 5888 5887 5887 5887 5886 5885 5884 5883 5882 5881 5880 5879 5878 5877 5876 5875 5874 5872 5870 5869 5866 5864 5862 5859 5857 5853 5850 5846 5843 5840
5887 5887 5887 5887 5887 5886 5885 5885 5884 5883 5882 5881 5880 5879 5878 5877 5876 5875 5873 5872 5870 5869 5867 5864 5862 5859 5856 5854 5851 5847 5844 5840 5837
5885 5885 5886 5886 5886 5885 5884 5883 5882 5881 5879 5878 5877 5876 5876 5875 5874 5873 5871 5870 5868 5866 5864 5861 5859 5856 5854 5851 5848 5845 5842 5838 5834
5884 5884 5883 5883 5884 5883 5883 5882 5881 5880 5879 5877 5876 5875 5873 5873 5871 5870 5869 5867 5866 5863 5861 5859 5856 5853 5851 5848 5845 5842 5839 5835 5831
5881 5881 5881 5881 5881 5882 5881 5880 5880 5879 5878 5877 5876 5874 5872 5872 5870 5868 5867 5865 5863 5860 5858 5856 5853 5850 5847 5844 5841 5838 5835 5831 5827
5878 5879 5879 5879 5879 5879 5878 5878 5878 5877 5876 5875 5874 5873 5871 5869 5868 5866 5864 5862 5860 5857 5854 5851 5848 5846 5843 5840 5837 5834 5831 5827 5824
5875 5875 5876 5876 5876 5876 5875 5875 5875 5874 5873 5872 5871 5870 5869 5867 5865 5863 5861 5859 5856 5854 5851 5848 5844 5841 5839 5835 5833 5830 5827 5823 5819
5872 5872 5873 5873 5873 5873 5873 5872 5872 5871 5870 5870 5869 5867 5866 5865 5862 5861 5859 5857 5853 5851 5848 5845 5841 5838 5834 5831 5828 5825 5822 5819 5815
5868 5869 5869 5869 5869 5870 5870 5869 5868 5868 5867 5866 5865 5864 5862 5860 5859 5857 5855 5853 5850 5847 5845 5841 5837 5833 5830 5826 5822 5820 5817 5814 5810
5863 5864 5865 5865 5866 5866 5866 5865 5864 5864 5863 5862 5861 5860 5858 5857 5855 5852 5851 5849 5846 5843 5840 5836 5833 5829 5825 5822 5818 5815 5812 5809 5805
5858 5859 5859 5860 5860 5860 5860 5861 5860 5860 5859 5858 5857 5855 5854 5853 5850 5848 5846 5844 5841 5838 5835 5831 5827 5825 5820 5816 5813 5809 5805 5802 5799
5853 5854 5854 5854 5854 5855 5855 5855 5855 5855 5854 5853 5853 5852 5850 5848 5846 5843 5841 5839 5835 5833 5829 5826 5821 5818 5814 5809 5806 5802 5798 5794 5791
5847 5848 5848 5848 5848 5848 5849 5849 5849 5849 5848 5847 5847 5845 5844 5842 5840 5838 5836 5833 5830 5826 5823 5821 5816 5813 5809 5805 5800 5797 5792 5787 5784
5840 5840 5841 5842 5842 5842 5842 5842 5843 5842 5841 5841 5840 5839 5837 5835 5834 5831 5828 5826 5823 5819 5815 5813 5810 5807 5803 5799 5795 5790 5785 5780 5777
5833 5833 5833 5834 5835 5835 5835 5835 5835 5835 5834 5834 5833 5832 5830 5828 5826 5824 5819 5817 5815 5812 5809 5805 5803 5800 5795 5792 5788 5785 5779 5774 5770
5825 5825 5825 5827 5826 5826 5826 5827 5826 5826 5825 5825 5824 5825 5824 5819 5817 5815 5812 5807 5804 5803 5801 5798 5795 5792 5787 5784 5781 5778 5774 5768 5764
5816 5816 5817 5818 5817 5817 5817 5817 5818 5818 5817 5814 5813 5813 5813 5812 5809 5806 5803 5801 5797 5794 5792 5790 5787 5784 5780 5777 5774 5770 5766 5762 5757
5807 5807 5807 5808 5808 5808 5809 5809 5808 5808 5806 5805 5803 5802 5801 5799 5800 5798 5793 5790 5788 5786 5784 5781 5778 5775 5771 5769 5766 5762 5758 5754 5750
5795 5795 5796 5798 5798 5798 5799 5800 5799 5798 5797 5795 5793 5792 5790 5788 5787 5786 5783 5779 5777 5775 5773 5770 5768 5766 5762 5759 5757 5752 5750 5746 5742